Flag for Germany Weather past 2 weeks in Unna, North Rhine-Westphalia, Germany

Now
36 °F

Clear.


Feels Like: 29 °F
Forecast: 35 / 53 °F
Wind: 8 mph from South

Location: Dortmund / Wickede

Current Time: Mar 6, 2015 at 10:42:33 PM

Latest Report: Mar 6, 2015 at 10:20 PM


Visibility: 10 mi

Pressure: 30.51 "Hg

Humidity: 81%

Dew point: 30 °F

Location of UnnaLocation

Historic Weather in Unna — Graph

°F

Unna temperature yesterday

Maximum temperature yesterday: 45 °F (at 2:20 PM)
Minimum temperature yesterday: 36 °F (at 5:50 AM)
Average temperature yesterday: 41 °F

Past Weeks' High & Low Weather Summary

 TemperatureHumidityPressure
High52 °F (Mar 1, 12:50 PM)93% (Feb 21, 7:20 PM)30.63 "Hg (Feb 21, 7:20 PM)
Low30 °F (Feb 28, 5:20 AM)42% (Feb 28, 1:50 PM)29.33 "Hg (Feb 21, 5:20 AM)
Average40 °F74%29.92 "Hg
* Reported Feb 19 9:20 PM — Mar 6 9:20 PM, Unna, Weather by CustomWeather, © 2015

Note: Actual official high and low records may vary slightly from our data, if they occured in-between our weather recording intervals... More about our weather records

Advertising

Unna weather history for previous 24 hours

 ConditionsComfort  
Time TempWeatherWind HumidityBarometerVisibility
9:20 PM
Fri, Mar 6
37 °FClear.7 mph75%30.51 "Hg10 mi
8:50 PM37 °FClear.6 mph70%30.54 "Hg10 mi
8:20 PM39 °FClear.6 mph75%30.54 "Hg10 mi
7:50 PM41 °FClear.7 mph70%30.54 "Hg10 mi
7:20 PM43 °FPassing clouds.7 mph66%30.54 "HgN/A
6:50 PM43 °FPassing clouds.7 mph71%30.54 "HgN/A
6:20 PM45 °FPassing clouds.5 mph61%30.54 "HgN/A
5:50 PM45 °FPartly sunny.6 mph61%30.54 "HgN/A
5:20 PM45 °FPartly sunny.7 mph61%30.54 "HgN/A
4:50 PM45 °FPartly sunny.8 mph61%30.54 "HgN/A
4:20 PM45 °FPartly sunny.9 mph61%30.54 "HgN/A
3:50 PM46 °FPartly sunny.9 mph62%30.54 "HgN/A
3:20 PM45 °FPartly sunny.9 mph61%30.54 "HgN/A
2:50 PM45 °FPartly sunny.7 mph61%30.57 "HgN/A
2:20 PM45 °FPartly sunny.7 mph61%30.57 "HgN/A
1:50 PM45 °FPartly sunny.9 mph66%30.57 "HgN/A
1:20 PM45 °FPartly sunny.9 mph66%30.57 "HgN/A
12:50 PM43 °FPartly sunny.9 mph71%30.57 "HgN/A
12:20 PM43 °FPartly sunny.8 mph71%30.60 "HgN/A
11:50 AM43 °FPartly sunny.8 mph66%30.60 "HgN/A
11:20 AM43 °FBroken clouds.10 mph66%30.60 "HgN/A
10:50 AM43 °FPartly sunny.10 mph66%30.60 "HgN/A
10:20 AM43 °FPartly sunny.9 mph66%30.60 "HgN/A
9:50 AM41 °FPartly sunny.10 mph70%30.60 "HgN/A
9:20 AM41 °FPartly sunny.9 mph70%30.60 "HgN/A
8:50 AM41 °FPartly sunny.8 mph70%30.60 "HgN/A
8:20 AM39 °FPartly sunny.8 mph75%30.60 "HgN/A
7:50 AM39 °FPartly sunny.8 mph75%30.60 "HgN/A
7:20 AM39 °FPartly sunny.9 mph75%30.57 "HgN/A
6:50 AM39 °FPassing clouds.9 mph75%30.60 "HgN/A
6:20 AM39 °FPassing clouds.8 mph75%30.60 "HgN/A
5:50 AM39 °FPassing clouds.8 mph75%30.60 "HgN/A
5:20 AM37 °FPassing clouds.9 mph81%30.60 "HgN/A
10:20 PM
Thu, Mar 5
37 °FClear.8 mph75%30.60 "Hg10 mi
Weather by CustomWeather, © 2015

See weather overviewHow to use our weather pages